Regional Weather Roundup
Issued by NWS

Home | Current Version | Previous Version | Text Only | Print | Product List | Glossary Off
Versions: 1 2 3 4 5 6 7 8 9 10 11 12 13 14 15 16 17 18 19 20 21 22 23 24 25 26 27 28 29 30 31 32 33 34 35 36 37 38 39 40 41 42 43 44 45 46 47 48 49 50

000
ASUS45 KABQ 252101
RWRNM
NEW MEXICO REGIONAL WEATHER ROUNDUP
NATIONAL WEATHER SERVICE ALBUQUERQUE NM
300 PM MDT MON JUL 25 2016

NOTE: "FAIR" MEANS FEW OR NO CLOUDS BELOW 12,000 FEET AGL WITH NO
       SIGNIFICANT WEATHER OR OBSTRUCTIONS TO VISION.

      THIS PRODUCT IS RELEASED AS TWO VERSIONS.  ONE VERSION NEAR
      THE TOP OF THE HOUR CONTAINING PRELIMINARY DATA FROM ALBUQUERQUE
      AND OTHER STATIONS.  A FINAL VERSION WITH ADDITIONAL DATA IS
      ISSUED ABOUT 10 MINUTES AFTER THE HOUR.

NMZ501-503-504-510>518-252200-
NORTHWEST PLATEAU/NORTHCENTRAL MOUNTAINS

CITY           SKY/WX    TMP DP  RH WIND       PRES   REMARKS
FARMINGTON     FAIR      95  40  14 NE6       30.13F
LOS ALAMOS     LGT RAIN  72  49  44 S16       30.34R
SANTA FE       FAIR      87  45  23 S8        30.22F
TAOS           CLOUDY    73  43  33 SE22G29   30.34R
ANGEL FIRE     LGT RAIN  57  51  79 CALM      30.51R

$$
NMZ402-403-502-505>509-252200-
WESTCENTRAL MOUNTAINS/SOUTHWEST MOUNTAINS

CITY           SKY/WX    TMP DP  RH WIND       PRES   REMARKS
GALLUP         FAIR      86  45  23 E16       30.24F
GRANTS         CLOUDY    82  45  26 NW16G24   30.29R
SILVER CITY    FAIR      90  49  24 SE7G16    30.16F

$$
NMZ407-409-411-412-252200-
SOUTHERN DESERTS

CITY           SKY/WX    TMP DP  RH WIND       PRES   REMARKS
LORDSBURG      FAIR      95  46  18 S9        30.06F
DEMING         FAIR      98  51  20 S9G20     30.05F HX  95
LAS CRUCES     FAIR      98  43  15 S9        30.08F
ALAMOGORDO     FAIR      99  48  18 S7G16     30.04F HX  95
T OR C         PTSUNNY   94  49  21 SW10G17   30.09F

$$
NMZ519>523-252200-
CENTRAL VALLEYS/CENTRAL HIGHLANDS

CITY           SKY/WX    TMP DP  RH WIND       PRES   REMARKS
ALBUQUERQUE    FAIR      92  45  19 W7        30.15F
DOUBLE EAGLE   MOSUNNY   93  48  21 VRB3      30.20F
MORIARTY ARPT  FAIR      87  44  22 W3        30.25F
CLINES CORNERS FAIR      87  46  24 S8        30.30F
BELEN          FAIR      93  41  16 CALM      30.14F
SOCORRO        FAIR      96  43  16 SE8       30.11F

$$
NMZ524>526-539-540-252200-
SOUTHCENTRAL MOUNTAINS

CITY           SKY/WX    TMP DP  RH WIND       PRES   REMARKS
RUIDOSO          N/A     86  43  22 E10G25    30.31F

$$
NMZ527>531-252200-
NORTHEAST HIGHLANDS/NORTHEAST PLAINS

CITY           SKY/WX    TMP DP  RH WIND       PRES   REMARKS
LAS VEGAS      PTSUNNY   70  50  49 W9        30.32S
RATON          FAIR      76  47  35 NW28G37   30.28R
CLAYTON        FAIR      87  60  40 SE12G20   30.18F

$$
NMZ532>537-252200-
EASTCENTRAL PLAINS

CITY           SKY/WX    TMP DP  RH WIND       PRES   REMARKS
TUCUMCARI      FAIR      97  51  21 SE12      30.06F
CANNON AFB     PTSUNNY   93  54  26 VRB6      30.08F
CLOVIS AIRPORT FAIR      95  55  26 CALM      30.09F

$$
NMZ028-029-538-252200-
SOUTHEAST PLAINS

CITY           SKY/WX    TMP DP  RH WIND       PRES   REMARKS
ROSWELL        FAIR      99  52  20 S9        30.03F HX  96
ARTESIA        FAIR      97  55  24 CALM      30.03F HX  95
CARLSBAD       FAIR      98  56  24 VRB5      30.00F HX  96
HOBBS          MOSUNNY   95  50  21 E12G20    30.06F


$$




USA.gov is the U.S. government's official web portal to all federal, state and local government web resources and services.